sat.trackr.live / text

‹ back to catalog

JILIN-1 KUANFU-01B

NORAD 49003 · 2021-061A

PAYLOAD ACTIVE UNKNOWN

§ Identity

Operator
Country
PRC
Launch date
2021-07-03
Launch site
TAISC
Launch vehicle
Mass (kg)
RCS (m²)

External: N2YO · Heavens-Above · Gunter

§ Orbital elements

Epoch: 2026-09-20T22:26:59.940672Z

Period
95.36 min
Inclination
97.5139°
Eccentricity
0.0008454
Mean motion
15.10074056 rev/d
Perigee alt
530.1 km
Apogee alt
541.8 km
Semi-major
6,914.1 km
B*
8.6317e-5
RAAN
338.3230°
Arg perigee
91.6307°
Mean anomaly
268.5891°
Rev number
28,779

§ Raw data

JILIN-1 KUANFU-01B1 49003U 21061A   26263.93541598  .00001343  00000+0  86317-4 0  99982 49003  97.5139 338.3230 0008454  91.6307 268.5891 15.10074056287792

JSON: /api/v1/satellites/49003 · /tle

For live sub-satellite position, see the globe view (requires WebGL).

§ Visibility from observer

Set your observer location to see the next 7 days of passes ≥ 10°. The values pass through the URL so the page stays shareable.

No JS? Fill the form by hand. The geolocation button needs JavaScript.